Theta_e
303 305 307 307 311 308 304 297 286 293 296 286 285 285 286 285 283 285 283 279 279 275 276 276 273 277 279 283 279 276 279 274 266 270 279 281 276 270 273 264 260 266 267 269
302 303 305 305 309 307 300 289 287 294 294 285 284 284 283 282 283 283 281 278 281 280 274 274 278 279 283 284 281 278 279 267 261 268 273 276 271 275 276 269 272 267 261 266
302 301 303 303 305 309 299 289 285 285 287 287 286 285 284 281 284 282 282 282 281 278 274 279 275 279 281 283 282 285 283 276 268 266 266 265 268 273 276 271 261 264 267 270
302 302 301 302 304 305 300 292 286 286 282 284 285 286 286 283 282 281 282 279 279 277 275 275 273 278 279 281 284 281 277 268 272 273 272 270 273 272 271 270 272 265 272 265
305 304 302 302 303 304 298 288 287 286 286 286 285 287 284 284 284 280 280 277 280 280 274 279 276 278 279 277 279 279 279 265 267 264 273 274 270 273 272 271 272 270 273 272
305 305 304 303 302 302 295 294 293 292 288 281 284 284 284 284 285 284 284 281 280 278 281 282 281 281 281 280 278 277 274 267 263 261 269 267 266 267 267 267 265 267 264 270
304 305 305 304 304 302 297 296 294 289 285 285 285 285 285 285 285 284 281 282 282 282 283 282 280 279 278 278 278 280 268 268 262 260 261 258 274 276 273 271 272 270 268 270
303 303 303 304 305 304 297 297 294 290 285 286 286 286 286 286 287 286 282 283 285 285 282 278 268 267 269 268 272 275 276 269 262 260 253 266 274 274 274 273 273 276 275 276
302 302 302 303 304 305 298 296 297 293 287 286 288 286 288 285 283 282 282 283 285 284 282 276 268 265 264 263 264 275 277 276 268 257 256 257 273 276 277 276 268 276 278 278
302 301 301 302 302 303 299 292 298 293 287 289 290 287 286 289 285 280 280 280 280 283 278 272 268 268 267 265 262 262 266 268 268 268 260 264 274 277 277 265 272 278 279 278
301 301 301 301 302 302 300 294 297 294 287 289 290 290 286 285 285 281 279 279 277 276 275 273 269 265 268 264 267 266 266 264 262 263 260 262 277 276 273 277 277 277 277 277
300 300 301 301 301 302 301 293 296 296 289 287 289 291 292 293 290 285 281 283 276 279 273 272 270 268 263 264 265 271 266 270 267 270 269 277 278 278 280 279 279 277 277 277
298 299 300 300 300 300 300 295 294 294 286 287 286 287 292 288 288 291 283 283 284 282 282 281 280 277 270 265 265 269 270 273 271 270 276 277 279 280 280 280 280 279 279 278
297 297 298 299 299 300 300 294 295 293 287 279 281 287 285 286 288 288 289 286 284 283 282 281 278 273 275 270 272 272 273 273 271 270 275 278 278 279 280 280 280 276 274 276
295 296 296 296 298 299 297 296 296 296 289 278 282 284 284 284 284 284 285 286 283 281 279 278 275 273 276 270 267 268 272 275 274 276 283 281 282 283 275 277 274 276 275 271
294 295 295 294 296 298 293 285 294 296 294 284 279 281 281 283 284 283 284 284 283 283 281 279 279 274 277 270 267 282 279 281 283 281 285 284 283 277 274 276 276 273 274 276
293 294 294 294 296 295 287 284 290 298 294 284 278 271 279 283 283 281 281 282 281 282 281 279 275 272 276 269 270 283 279 281 282 283 282 280 281 279 276 275 273 269 268 270
293 293 294 293 296 295 289 293 295 297 288 285 278 269 272 281 277 275 281 278 279 279 279 277 272 270 268 269 274 276 278 277 281 284 282 283 277 270 272 268 267 268 270 270
292 293 294 291 288 284 285 295 296 296 287 281 277 268 267 275 277 277 276 279 273 275 271 271 272 265 267 272 274 277 279 277 282 276 274 269 271 276 271 268 264 270 272 269
292 289 284 281 284 293 293 289 283 284 284 283 279 266 268 274 272 274 273 271 267 270 267 269 270 268 274 276 277 279 281 281 276 273 277 263 266 270 268 269 271 273 274 272
285 282 281 284 294 287 284 279 279 279 277 279 275 267 271 275 272 272 269 268 266 264 265 267 261 262 271 277 280 282 281 281 282 279 281 274 272 272 272 269 269 270 269 270
284 284 286 285 283 281 276 275 278 276 271 276 271 270 273 276 273 270 268 266 269 266 261 262 259 268 274 275 275 275 275 276 275 269 272 269 272 271 271 268 268 269 270 266
285 281 279 277 277 273 269 271 273 272 274 272 274 273 272 271 273 271 269 264 265 259 258 260 265 272 272 273 269 271 266 267 267 266 262 263 264 263 266 269 263 264 266 267
279 274 268 272 267 272 274 271 270 268 271 273 274 269 272 268 267 265 268 261 260 256 254 261 268 275 275 268 265 265 266 264 265 265 260 260 259 262 262 265 263 265 266 265
277 275 270 273 271 270 267 266 265 264 277 275 270 269 272 268 267 265 261 259 260 259 264 269 276 269 268 266 262 261 262 263 262 261 258 259 256 255 260 260 261 263 260 265
276 274 273 273 267 268 266 260 270 264 276 269 271 270 271 271 268 264 264 261 260 267 265 272 270 268 264 263 260 260 259 259 258 257 257 256 253 253 257 255 254 258 261 264
274 273 272 274 272 268 270 269 266 272 274 268 270 267 270 266 258 257 260 263 268 270 273 273 270 269 266 260 257 257 257 258 256 254 254 253 251 248 251 257 258 254 257 259
Wind_Speed
8 10 11 13 9 16 2 2 2 1 2 2 0 2 3 1 2 0 2 1 3 5 4 2 4 5 5 5 6 5 4 4 4 11 4 5 6 8 5 6 7 5 3 14
8 8 10 10 2 13 3 3 2 1 1 3 3 1 2 2 4 3 3 3 3 1 5 2 6 3 2 5 6 6 5 2 4 9 6 5 2 5 4 3 2 8 4 12
8 9 8 9 7 9 2 3 3 1 1 1 3 3 3 3 1 1 2 2 2 2 2 2 4 3 2 5 5 4 3 3 8 9 9 4 4 5 8 7 4 5 13 19
7 8 9 10 8 9 3 2 4 4 4 5 5 5 4 4 3 2 5 2 6 6 4 2 6 5 2 4 6 3 4 5 4 7 10 7 15 16 10 12 15 8 20 8
12 11 10 9 10 12 3 3 3 1 3 2 8 8 7 9 5 8 6 6 6 8 7 9 8 6 5 6 3 5 4 5 2 7 8 9 9 18 16 19 15 16 22 26
15 14 12 10 9 2 2 1 1 4 5 4 5 7 8 8 7 8 5 9 5 10 17 7 4 4 2 4 8 8 6 4 3 7 3 7 9 11 7 6 5 8 8 18
16 15 14 15 13 10 0 2 1 4 8 8 7 6 8 12 14 3 3 6 6 3 4 4 5 4 4 2 3 4 6 5 3 6 6 2 8 4 7 11 8 16 8 10
18 16 15 14 17 15 3 2 2 3 6 6 7 6 6 6 5 6 6 4 1 5 3 1 5 5 6 4 3 1 4 5 2 1 3 10 11 3 7 8 9 13 15 16
21 19 18 18 19 19 4 4 3 4 3 10 8 9 10 6 4 2 3 2 3 3 2 2 5 5 4 4 6 3 2 3 4 3 2 7 6 1 1 2 7 7 10 9
23 23 21 21 22 22 9 4 9 2 6 5 6 6 7 7 4 3 4 4 2 1 3 3 4 5 3 3 7 6 3 2 12 8 5 13 15 7 1 7 9 5 6 6
24 25 24 22 22 22 13 4 9 8 3 4 7 10 8 3 5 6 6 5 2 3 5 4 5 4 6 2 4 8 10 9 6 4 3 13 10 5 10 7 3 3 4 6
26 25 26 25 24 23 20 9 6 6 6 4 2 4 4 10 10 7 7 1 6 7 3 2 2 1 2 4 5 1 3 11 10 14 15 6 9 7 10 8 6 4 4 5
23 24 24 25 26 26 20 10 6 5 5 5 4 7 6 2 4 5 7 2 4 4 4 3 3 5 5 5 9 5 6 6 5 2 13 23 17 15 8 7 10 7 6 7
23 21 25 25 25 27 22 9 7 9 3 4 7 2 4 3 6 3 0 8 5 5 1 2 3 3 4 4 4 6 8 9 7 9 21 14 19 13 14 13 12 7 6 9
28 25 23 22 27 28 16 9 7 13 7 5 3 2 1 1 6 8 6 10 7 3 4 4 5 3 1 1 2 10 9 11 8 13 24 10 12 8 3 9 10 13 9 6
27 27 26 21 32 26 7 4 9 14 9 2 3 2 2 1 5 8 9 6 3 3 3 4 4 1 4 4 7 21 9 15 21 24 23 16 13 7 4 8 10 9 11 12
25 26 27 18 28 13 7 5 2 21 10 3 3 2 2 5 3 2 2 2 1 2 3 4 3 2 4 3 11 30 7 12 16 21 16 18 16 15 9 10 7 3 4 6
23 23 25 18 26 15 12 10 8 9 9 4 4 2 2 3 3 3 2 3 2 3 2 1 3 1 1 11 10 9 13 11 18 21 15 22 7 2 7 4 5 6 7 7
22 19 25 13 11 4 3 13 13 9 5 6 5 10 6 3 3 3 1 2 2 1 3 3 5 4 11 11 12 16 19 11 16 5 8 5 9 15 8 7 4 8 9 7
19 7 6 5 6 15 10 10 4 7 6 3 3 2 6 5 3 2 4 0 4 4 6 3 5 8 9 12 19 20 23 15 5 4 16 2 7 9 7 12 10 13 11 9
2 4 3 3 16 4 5 5 8 3 5 5 4 5 9 3 5 4 3 4 3 3 5 5 4 6 9 19 21 20 15 12 13 14 17 7 8 7 8 8 11 9 8 9
4 2 1 3 3 4 6 5 4 5 6 3 7 4 5 3 3 5 2 4 2 6 1 2 6 9 12 10 11 10 9 8 8 6 9 5 9 8 8 6 8 11 10 7
1 1 2 4 5 8 8 10 4 4 5 5 6 5 5 3 2 3 3 5 7 2 3 7 8 9 9 10 5 7 3 2 2 5 3 4 5 4 7 8 5 5 8 8
5 7 5 5 5 4 4 8 6 5 7 10 9 5 5 3 3 3 5 1 3 2 1 9 6 14 13 0 3 0 3 2 4 7 4 5 4 6 6 7 4 7 8 8
5 5 7 6 2 2 0 2 1 2 7 11 6 4 4 3 4 2 5 4 6 7 8 8 8 5 6 4 2 4 4 4 3 3 4 5 5 4 7 6 6 6 4 8
2 1 3 1 2 2 1 2 1 2 8 3 4 6 5 5 5 5 10 8 8 7 8 6 3 4 4 4 3 5 3 2 4 3 4 4 4 5 6 5 4 5 6 8
1 2 1 2 1 3 3 5 4 4 7 4 5 6 7 4 4 2 6 8 6 7 5 3 4 5 4 4 2 3 2 3 4 3 4 4 4 4 1 5 5 4 5 5
Wind_Direction
333 339 345 354 188 152 85 148 108 315 315 79 232 198 224 191 200 144 183 228 186 182 174 228 245 234 203 138 142 176 199 151 258 229 266 157 165 189 160 130 271 228 196 267
317 322 333 0 161 182 140 107 96 344 322 187 215 211 243 246 201 217 172 232 231 121 187 242 217 226 160 147 166 176 181 289 353 340 351 358 202 222 171 134 109 218 150 266
302 308 304 336 319 255 40 130 140 321 92 249 183 170 224 256 321 240 185 216 122 122 249 242 288 262 197 189 190 169 143 215 184 205 211 149 264 227 203 150 150 223 226 274
271 282 290 296 298 313 144 180 231 180 178 219 184 172 172 177 252 224 174 308 211 172 220 197 227 225 199 198 203 188 140 222 244 252 252 218 254 253 206 203 216 192 268 222
264 254 254 269 288 319 196 168 156 2 176 140 172 192 206 216 182 161 227 206 197 188 197 193 202 182 197 205 166 172 185 259 97 284 255 245 256 252 224 223 242 254 258 276
266 250 252 235 248 90 258 162 41 140 179 182 162 187 203 213 157 220 192 196 159 199 231 226 236 219 199 195 166 189 169 148 65 265 348 314 289 237 172 187 210 159 173 231
266 262 254 232 231 185 357 247 164 182 234 200 195 199 192 212 205 208 240 168 170 224 96 104 24 49 13 356 243 181 144 122 131 264 1 287 246 189 177 194 214 212 268 264
266 262 262 257 234 208 168 208 244 210 239 190 190 206 209 228 192 210 177 215 137 142 124 50 7 333 7 329 9 136 155 127 306 206 216 299 287 178 160 174 279 204 219 251
256 251 257 264 256 232 176 193 188 270 279 231 181 192 195 191 178 172 147 19 19 98 156 149 196 226 209 295 340 343 153 89 142 79 172 241 253 232 171 121 290 202 184 231
260 250 244 248 252 246 211 196 177 252 245 204 150 202 188 179 169 129 130 167 146 93 167 187 186 241 178 213 176 177 148 204 218 214 247 279 252 233 194 86 243 168 182 188
261 253 247 239 245 245 231 220 179 196 251 239 202 171 165 139 163 164 157 115 254 147 196 185 217 172 220 111 187 179 170 160 195 135 206 274 173 76 174 221 256 222 201 190
263 256 249 247 242 236 239 233 192 190 217 266 293 258 244 187 185 140 183 204 166 168 145 225 116 238 91 175 251 296 259 194 181 187 214 240 210 221 231 164 199 220 207 212
272 274 254 251 247 240 231 223 162 201 219 260 215 221 207 120 224 176 146 213 171 222 191 151 181 230 125 181 236 185 255 175 228 79 250 242 244 252 255 226 228 213 212 202
265 259 271 252 235 249 226 230 177 190 202 201 235 102 170 169 167 176 136 133 93 111 124 165 159 203 184 224 235 203 192 144 192 261 276 276 259 237 244 249 236 225 221 196
268 261 263 276 236 236 238 227 209 188 192 202 147 72 142 206 157 150 157 140 126 168 150 189 212 209 149 215 30 243 178 196 203 246 259 235 259 248 216 215 226 229 197 223
269 268 259 257 265 218 217 230 211 201 182 206 217 116 166 130 135 141 149 149 122 160 176 180 224 82 152 228 245 261 187 215 229 247 261 259 262 245 209 202 228 221 198 209
268 269 263 262 253 206 211 186 153 180 159 187 177 229 160 132 114 112 107 109 163 164 180 220 176 225 170 221 250 260 235 228 234 240 258 270 247 256 221 210 222 177 205 204
269 267 267 231 242 231 232 222 225 208 163 164 200 114 110 179 146 131 151 135 137 204 232 136 166 73 150 249 252 284 252 257 254 248 219 244 268 323 224 189 148 177 201 206
270 264 277 241 218 160 235 173 192 199 214 178 136 145 194 180 117 118 115 149 160 5 217 226 135 202 223 233 242 249 257 213 256 235 248 270 223 248 232 194 192 202 216 198
272 268 219 208 201 142 160 166 178 207 183 209 152 123 150 136 134 150 119 100 206 199 233 112 217 252 270 255 244 256 265 258 179 257 273 229 258 230 219 214 210 208 208 203
210 208 195 198 145 109 177 215 189 192 178 151 137 138 128 221 140 145 178 172 187 202 249 174 254 270 239 235 241 249 261 256 247 228 253 220 205 206 228 231 217 209 196 201
192 183 118 154 161 198 197 186 189 195 186 122 124 156 124 149 116 110 205 167 145 240 169 89 271 249 251 258 252 258 245 240 239 212 249 243 231 220 217 213 208 209 210 177
156 247 278 145 221 203 190 173 188 148 145 151 142 114 124 93 88 91 125 144 211 65 80 230 232 257 277 263 243 274 282 202 273 275 266 276 255 252 200 223 223 189 198 186
215 154 216 220 204 225 213 162 166 199 137 144 137 112 128 149 94 135 148 187 88 75 278 238 244 240 249 289 254 117 282 215 258 276 284 276 268 266 258 243 207 183 200 192
231 146 180 223 184 64 13 328 24 144 140 131 100 63 97 127 108 97 106 53 249 205 224 225 237 275 255 270 252 237 255 256 247 256 280 281 283 266 274 256 228 213 171 177
128 113 153 238 66 195 143 13 146 214 140 77 71 121 148 174 142 145 211 136 216 233 221 239 253 275 256 251 234 241 228 257 274 268 252 278 281 266 259 299 237 212 182 184
48 199 271 174 183 222 156 141 243 201 129 133 121 130 190 107 81 243 179 196 223 230 240 240 222 236 253 220 244 275 274 277 280 280 291 271 274 289 284 258 260 201 211 185